CW4731 Weather Reports


Display with metric or nautical units.
time (UTC)temp
F
wind
direction
speed
MPH
gust
MPH
rain 1hr
in
rain 24hr
in
rain mn
in
humidity
%
barometer
mb
20260503223705 73 155 2.0 10.0 0.00 0.02 0.02 32 994.7
20260503223202 73 155 6.0 11.0 0.00 0.02 0.02 33 994.7
20260503222702 73 161 7.0 11.0 0.00 0.02 0.02 33 994.7
20260503222202 73 219 4.0 9.0 0.00 0.02 0.02 31 994.8
20260503221702 74 154 1.0 10.0 0.00 0.02 0.02 34 994.8
20260503221429 74 164 4.0 10.0 0.00 0.02 0.02 32 994.9
20260503220703 74 164 5.0 13.0 0.00 0.02 0.02 32 994.7
20260503220202 74 164 5.0 13.0 0.00 0.02 0.02 31 994.8
20260503215703 74 192 7.0 12.0 0.00 0.02 0.02 31 994.9
20260503215201 74 165 4.0 13.0 0.00 0.02 0.02 33 994.8
20260503214702 75 168 6.0 13.0 0.00 0.02 0.02 32 994.9
20260503214202 75 178 5.0 12.0 0.00 0.02 0.02 32 994.9
20260503213925 75 172 6.0 12.0 0.00 0.02 0.02 33 994.7
20260503213432 75 158 7.0 12.0 0.00 0.02 0.02 35 994.7
20260503212702 75 185 6.0 12.0 0.00 0.02 0.02 34 994.7
20260503212202 75 168 4.0 14.0 0.00 0.02 0.02 32 994.7
20260503211703 75 159 8.0 14.0 0.00 0.02 0.02 33 994.7
20260503211202 76 164 7.0 12.0 0.00 0.02 0.02 32 994.7
20260503210707 75 196 3.0 16.0 0.00 0.02 0.02 36 994.6
20260503210202 75 209 10.0 16.0 0.00 0.02 0.02 35 994.6
20260503205918 75 168 9.0 14.0 0.00 0.02 0.02 34 994.6
20260503205200 75 179 8.0 12.0 0.00 0.02 0.02 37 994.7
20260503204909 75 154 8.0 12.0 0.00 0.02 0.02 37 994.7
20260503204149 75 158 8.0 13.0 0.00 0.02 0.02 36 994.7
20260503203652 75 155 7.0 13.0 0.00 0.02 0.02 35 994.8
20260503203152 75 171 7.0 12.0 0.00 0.02 0.02 36 994.9
20260503202652 75 161 4.0 12.0 0.00 0.02 0.02 36 995.0
20260503202149 75 164 8.0 12.0 0.00 0.02 0.02 36 995.1
20260503201909 75 186 5.0 12.0 0.00 0.02 0.02 40 995.0
20260503201149 74 149 6.0 12.0 0.00 0.02 0.02 37 995.0
20260503200649 74 164 7.0 11.0 0.00 0.02 0.02 38 995.1
20260503200149 75 209 5.0 10.0 0.00 0.02 0.02 37 995.1
20260503195649 75 190 6.0 10.0 0.00 0.02 0.02 38 995.2
20260503195149 75 161 4.0 7.0 0.00 0.02 0.02 39 995.1
20260503194648 75 199 1.0 7.0 0.00 0.02 0.02 41 995.4
20260503194149 74 212 3.0 7.0 0.00 0.02 0.02 37 995.4
20260503193648 74 168 3.0 10.0 0.00 0.02 0.02 41 995.5
20260503193148 74 162 6.0 10.0 0.00 0.02 0.02 40 995.5
20260503192648 74 151 6.0 9.0 0.00 0.02 0.02 41 995.6
20260503192148 74 155 4.0 9.0 0.00 0.02 0.02 43 995.6
20260503191647 74 185 3.0 7.0 0.00 0.02 0.02 44 995.7
20260503191148 73 213 5.0 6.0 0.00 0.02 0.02 42 995.8
20260503190648 73 190 1.0 5.0 0.00 0.02 0.02 39 995.8
20260503190147 73 176 3.0 6.0 0.00 0.02 0.02 39 995.8
20260503185647 73 154 3.0 6.0 0.00 0.02 0.02 37 995.9
20260503185148 73 196 4.0 7.0 0.00 0.02 0.02 37 996.0
20260503184648 73 161 5.0 7.0 0.00 0.02 0.02 40 996.1
20260503184147 73 154 5.0 6.0 0.00 0.02 0.02 40 996.0
20260503183645 73 195 3.0 6.0 0.00 0.02 0.02 41 996.3
20260503183145 73 171 3.0 6.0 0.00 0.02 0.02 40 996.2
20260503182645 72 180 2.0 5.0 0.00 0.02 0.02 41 996.3
20260503182145 72 292 1.0 4.0 0.00 0.02 0.02 40 996.2
20260503181643 72 155 3.0 6.0 0.00 0.02 0.02 43 996.3
20260503181143 72 155 3.0 6.0 0.00 0.02 0.02 43 996.4
20260503180901 71 206 2.0 6.0 0.00 0.02 0.02 41 996.3
20260503180611 71 183 0.0 7.0 0.00 0.02 0.02 42 996.4
20260503175631 71 162 3.0 7.0 0.00 0.02 0.02 44 996.5
20260503175131 71 171 3.0 9.0 0.00 0.02 0.02 42 996.5
20260503174632 71 145 3.0 9.0 0.00 0.02 0.02 44 996.5
20260503174131 70 172 0.0 3.0 0.00 0.02 0.02 46 996.6
20260503173632 70 172 0.0 4.0 0.00 0.02 0.02 46 996.6
20260503173353 70 172 2.0 5.0 0.00 0.02 0.02 43 996.7
20260503172631 70 186 2.0 5.0 0.00 0.02 0.02 42 996.9
20260503172131 70 192 0.0 5.0 0.00 0.02 0.02 43 996.9
20260503171631 69 183 4.0 6.0 0.00 0.02 0.02 45 997.0
20260503171610 69 214 3.0 7.0 0.00 0.02 0.02 45 997.0
20260503170632 69 200 2.0 7.0 0.00 0.02 0.02 42 997.1
20260503170131 69 204 0.0 6.0 0.00 0.02 0.02 44 997.3
20260503150536 64 200 5.0 12.0 0.00 0.02 0.02 48 998.0
20260503150302 63 203 2.0 15.0 0.00 0.02 0.02 49 998.0
20260503131020 57 298 1.0 5.0 0.00 0.02 0.02 58 999.1
20260503130520 56 302 3.0 5.0 0.00 0.02 0.02 64 998.9
20260503130241 56 0 2.0 5.0 0.00 0.02 0.01 63 999.0
20260503110504 53 158 3.0 6.0 0.01 0.01 0.00 66 999.7
20260503100223 55 171 2.0 6.0 0.00 0.00 0.00 59 1000.6
20260503090431 54 0 1.0 4.0 0.00 0.00 0.00 60 1001.2
20260503081405 53 66 0.0 1.0 0.00 0.00 0.00 59 1001.7
20260503080904 52 63 0.0 3.0 0.00 0.00 0.00 58 1001.6
20260503080404 52 63 0.0 3.0 0.00 0.00 0.00 62 1001.7
20260503072902 52 30 0.0 0.0 0.00 0.00 0.00 58 1001.8
20260503072402 52 30 0.0 3.0 0.00 0.00 0.00 58 1001.8
20260503071902 52 30 0.0 3.0 0.00 0.00 0.00 58 1001.9
20260503071622 52 133 1.0 3.0 0.00 0.00 0.00 57 1001.9
20260503070902 52 133 1.0 3.0 0.00 0.00 0.00 57 1002.0
20260503070839 52 114 0.0 1.0 0.00 0.00 0.00 60 1002.1
20260503070643 52 114 0.0 0.0 0.00 0.00 0.00 60 1002.1
20260503054902 50 73 2.0 5.0 0.00 0.00 0.00 63 1002.6
20260503054402 50 73 0.0 2.0 0.00 0.00 0.00 62 1002.7
20260503053903 50 73 0.0 3.0 0.00 0.00 0.00 62 1002.7
20260503053623 50 73 2.0 3.0 0.00 0.00 0.00 61 1002.8
20260503052903 50 73 0.0 0.0 0.00 0.00 0.00 61 1002.7
20260503052401 50 73 0.0 3.0 0.00 0.00 0.00 58 1002.9
20260503051902 51 73 0.0 3.0 0.00 0.00 0.00 58 1002.8
20260503051401 50 4 0.0 3.0 0.00 0.00 0.00 61 1002.9
20260503051123 50 4 0.0 0.0 0.00 0.00 0.00 60 1002.8
20260503050402 50 4 0.0 0.0 0.00 0.00 0.00 60 1002.8
20260503045901 51 4 0.0 2.0 0.00 0.00 0.00 62 1002.9
20260503045403 51 4 2.0 3.0 0.00 0.00 0.00 61 1002.9
20260503044903 51 4 0.0 3.0 0.00 0.00 0.00 62 1002.9
20260503044402 51 4 0.0 1.0 0.00 0.00 0.00 61 1002.8
20260503043902 51 4 0.0 1.0 0.00 0.00 0.00 59 1002.9
20260503043402 51 3 0.0 1.0 0.00 0.00 0.00 58 1002.9
20260503042902 51 3 0.0 1.0 0.00 0.00 0.00 59 1003.0
20260503042403 51 3 0.0 2.0 0.00 0.00 0.00 60 1003.0
20260503041902 51 3 0.0 2.0 0.00 0.00 0.00 61 1003.1
20260503041402 51 3 0.0 1.0 0.00 0.00 0.00 60 1003.2
20260503041130 51 1 0.0 3.0 0.00 0.00 0.00 59 1003.1
20260503040626 51 1 0.0 3.0 0.00 0.00 0.00 61 1003.2
20260503035848 51 0 0.0 2.0 0.00 0.00 0.00 61 1003.3
20260503035346 50 0 0.0 1.0 0.00 0.00 0.00 62 1003.3
20260503035108 50 348 0.0 0.0 0.00 0.00 0.00 62 1003.3
20260503034602 50 348 0.0 0.0 0.00 0.00 0.00 62 1003.5
20260503033835 50 348 0.0 0.0 0.00 0.00 0.00 63 1003.5
20260503033331 50 348 0.0 0.0 0.00 0.00 0.00 63 1003.7
20260503032833 50 348 0.0 3.0 0.00 0.00 0.00 63 1003.7
20260503032331 50 348 0.0 3.0 0.00 0.00 0.00 63 1003.7
20260503032052 50 348 2.0 3.0 0.00 0.00 0.00 62 1003.7
20260503031801 51 348 0.0 0.0 0.00 0.00 0.00 63 1003.8
20260503031525 51 348 0.0 0.0 0.00 0.00 0.00 63 1003.8
20260503030331 51 348 0.0 0.0 0.00 0.00 0.00 63 1003.9
20260503025831 51 348 0.0 0.0 0.00 0.00 0.00 61 1003.9
20260503025331 51 348 0.0 0.0 0.00 0.00 0.00 62 1003.9
20260503024830 51 348 0.0 0.0 0.00 0.00 0.00 61 1004.0
20260503024331 51 348 0.0 0.0 0.00 0.00 0.00 61 1003.9
20260503023831 52 348 0.0 0.0 0.00 0.00 0.00 61 1003.9
20260503023555 52 348 0.0 0.0 0.00 0.00 0.00 61 1003.9
20260503022831 52 348 0.0 0.0 0.00 0.00 0.00 60 1003.9
20260503022323 53 348 0.0 1.0 0.00 0.00 0.00 62 1004.0
20260503021804 53 348 0.0 1.0 0.00 0.00 0.00 60 1004.0
20260503021302 53 348 0.0 2.0 0.00 0.00 0.00 59 1003.9
20260503020802 53 348 0.0 2.0 0.00 0.00 0.00 57 1003.9
20260503020302 53 348 0.0 2.0 0.00 0.00 0.00 56 1003.8
20260503015802 54 348 0.0 2.0 0.00 0.00 0.00 56 1003.9
20260503015305 54 348 0.0 0.0 0.00 0.00 0.00 57 1003.9
20260503014802 55 348 0.0 0.0 0.00 0.00 0.00 56 1003.8
20260503014302 55 348 0.0 0.0 0.00 0.00 0.00 56 1003.9
20260503014022 56 348 0.0 0.0 0.00 0.00 0.00 52 1003.8
20260503013302 56 348 0.0 0.0 0.00 0.00 0.00 52 1003.8
20260503012803 56 348 0.0 0.0 0.00 0.00 0.00 53 1003.7
20260503012305 57 348 0.0 0.0 0.00 0.00 0.00 52 1003.8
20260503011802 57 348 0.0 0.0 0.00 0.00 0.00 52 1003.8
20260503011302 58 348 0.0 0.0 0.00 0.00 0.00 50 1003.8
20260503010802 58 348 0.0 0.0 0.00 0.00 0.00 49 1003.8
20260503010303 58 348 0.0 0.0 0.00 0.00 0.00 49 1003.8
20260503005802 58 348 0.0 0.0 0.00 0.00 0.00 48 1003.8
20260503005304 59 348 0.0 0.0 0.00 0.00 0.00 47 1003.9
20260503004802 59 6 0.0 0.0 0.00 0.00 0.00 45 1003.7
20260503004303 59 6 0.0 0.0 0.00 0.00 0.00 44 1003.8
20260503003802 59 6 0.0 0.0 0.00 0.00 0.00 42 1003.8
20260503003302 59 6 0.0 0.0 0.00 0.00 0.00 42 1003.9
20260503002803 59 6 0.0 0.0 0.00 0.00 0.00 42 1003.9
20260503002305 59 6 0.0 2.0 0.00 0.00 0.00 41 1003.9
20260503002022 60 6 0.0 2.0 0.00 0.00 0.00 41 1004.0
20260503001302 60 7 0.0 1.0 0.00 0.00 0.00 40 1004.0
20260503000740 60 8 0.0 2.0 0.00 0.00 0.00 40 1004.0
20260503000240 60 8 1.0 2.0 0.00 0.00 0.00 40 1004.0
20260502235740 60 16 1.0 2.0 0.00 0.00 0.00 41 1004.1
20260502235507 61 313 0.0 2.0 0.00 0.00 0.00 42 1004.1
20260502234737 62 204 0.0 0.0 0.00 0.00 0.00 38 1004.3
20260502234231 62 204 0.0 1.0 0.00 0.00 0.00 38 1004.3
20260502233715 62 204 0.0 1.0 0.00 0.00 0.00 39 1004.3
20260502233210 62 204 0.0 6.0 0.00 0.00 0.00 39 1004.4
20260502232705 62 204 3.0 6.0 0.00 0.00 0.00 36 1004.4
20260502232202 62 178 2.0 2.0 0.00 0.00 0.00 37 1004.4
20260502231704 62 178 2.0 2.0 0.00 0.00 0.00 37 1004.5
20260502231201 62 243 4.0 7.0 0.00 0.00 0.00 36 1004.6
20260502230633 62 243 4.0 9.0 0.00 0.00 0.00 36 1004.6
20260502230338 63 162 2.0 6.0 0.00 0.00 0.00 35 1004.6
20260502230326 62 173 2.0 9.0 0.00 0.00 0.00 36 1004.6
20260502225131 63 183 3.0 7.0 0.00 0.00 0.00 36 1004.7
20260502224633 63 175 5.0 7.0 0.00 0.00 0.00 35 1004.8
20260502224131 63 220 3.0 9.0 0.00 0.00 0.00 35 1004.9